Location: Huntsville
(41.2590°N, 111.7678°W)
Time: 20:45:11
(UTC+00:00)

Vanguard 3 - Pass Details

Date: 15 June 2021
Orbit: 508 x 3261 km, 33.4° (Epoch: 28 July)

Event Time Altitude Azimuth Distance (km) Brightness Sun altitude
Rises 18:05:59 0° 257° (WSW) 3,076 10.0 65.2°
Reaches altitude 10° 18:08:01 10° 250° (WSW) 2,353 9.5 65.5°
Maximum altitude 18:13:15 44° 178° (S) 1,458 9.6 66.3°
Drops below altitude 10° 18:22:04 10° 111° (ESE) 3,952 11.1 67.4°
Sets 18:26:31 0° 106° (ESE) 5,431 11.6 68.0°
